• In Belgium
  • List of Countries
  • For 7 days
  • Water Temperature
  • Satellite Maps
  • Weather Map
  • Weather Widgets
  • user-avatar
    Login

    Hourly Weather Lozova

    Today, 22 November, Wednesday

    Time Temperature Precipitation Wind Pressure Humidity
    00:00 -3°C° 0 mm 6 mps 739 mmHg 77%
    01:00 -2°C° 0 mm 5 mps 739 mmHg 78%
    02:00 -2°C° 0 mm 5 mps 740 mmHg 79%
    03:00 -4°C° 0 mm 5 mps 740 mmHg 80%
    04:00 -4°C° 0 mm 5 mps 740 mmHg 82%
    05:00 -4°C° 0 mm 5 mps 741 mmHg 83%
    06:00 -4°C° 0 mm 5 mps 741 mmHg 83%
    07:00 -4°C° 0 mm 5 mps 741 mmHg 82%
    08:00 -4°C° 0 mm 5 mps 742 mmHg 82%
    09:00 -2°C° 0 mm 5 mps 742 mmHg 76%
    10:00 -1°C° 0 mm 5 mps 742 mmHg 70%
    11:00 0°C° 0 mm 5 mps 743 mmHg 64%
    12:00 0°C° 0 mm 5 mps 743 mmHg 63%
    13:00 0°C° 0 mm 5 mps 743 mmHg 61%
    14:00 0°C° 0 mm 5 mps 743 mmHg 60%
    15:00 -1°C° 0 mm 4 mps 743 mmHg 63%
    16:00 -1°C° 0 mm 3 mps 743 mmHg 66%
    17:00 -1°C° 0 mm 3 mps 744 mmHg 69%
    18:00 -2°C° 0 mm 3 mps 744 mmHg 70%
    19:00 -2°C° 0 mm 3 mps 744 mmHg 70%
    20:00 -2°C° 0 mm 3 mps 744 mmHg 71%
    21:00 -2°C° 0 mm 3 mps 745 mmHg 73%
    22:00 -4°C° 0 mm 3 mps 745 mmHg 74%
    23:00 -4°C° 0 mm 3 mps 745 mmHg 76%

    Tomorrow, 23 November, Thursday

    Time Temperature Precipitation Wind Pressure Humidity
    00:00 -4°C° 0 mm 3 mps 745 mmHg 78%
    01:00 -4°C° 0 mm 3 mps 745 mmHg 80%
    02:00 -4°C° 0 mm 3 mps 746 mmHg 82%
    03:00 -4°C° 0 mm 3 mps 746 mmHg 83%
    04:00 -4°C° 0 mm 3 mps 746 mmHg 84%
    05:00 -4°C° 0 mm 3 mps 746 mmHg 85%
    06:00 -4°C° 0 mm 3 mps 746 mmHg 83%
    07:00 -4°C° 0 mm 4 mps 746 mmHg 82%
    08:00 -4°C° 0 mm 4 mps 747 mmHg 80%
    09:00 -3°C° 0 mm 4 mps 747 mmHg 74%
    10:00 -2°C° 0 mm 5 mps 747 mmHg 69%
    11:00 -2°C° 0 mm 6 mps 747 mmHg 63%
    12:00 -1°C° 0 mm 5 mps 747 mmHg 62%
    13:00 -1°C° 0 mm 5 mps 748 mmHg 61%
    14:00 -1°C° 0 mm 5 mps 748 mmHg 60%
    15:00 -2°C° 0 mm 5 mps 748 mmHg 64%
    16:00 -2°C° 0 mm 4 mps 748 mmHg 68%
    17:00 -2°C° 0 mm 3 mps 748 mmHg 73%
    18:00 -2°C° 0 mm 3 mps 749 mmHg 74%
    19:00 -4°C° 0 mm 4 mps 749 mmHg 74%
    20:00 -4°C° 0 mm 4 mps 749 mmHg 75%
    21:00 -4°C° 0 mm 4 mps 749 mmHg 76%
    22:00 -4°C° 0 mm 4 mps 749 mmHg 76%
    23:00 -4°C° 0 mm 3 mps 749 mmHg 77%

    Day after tomorrow, 24 November, Friday

    Time Temperature Precipitation Wind Pressure Humidity
    00:00 -4°C° 0 mm 3 mps 749 mmHg 77%
    01:00 -4°C° 0 mm 3 mps 750 mmHg 77%
    02:00 -5°C° 0 mm 3 mps 750 mmHg 77%
    03:00 -5°C° 0 mm 3 mps 750 mmHg 77%
    04:00 -5°C° 0 mm 4 mps 750 mmHg 76%
    05:00 -5°C° 0 mm 4 mps 750 mmHg 76%
    06:00 -5°C° 0 mm 4 mps 750 mmHg 75%
    07:00 -5°C° 0 mm 4 mps 751 mmHg 73%
    08:00 -5°C° 0 mm 4 mps 751 mmHg 72%
    09:00 -4°C° 0 mm 4 mps 752 mmHg 69%
    10:00 -4°C° 0 mm 3 mps 752 mmHg 67%
    11:00 -2°C° 0 mm 3 mps 753 mmHg 64%
    12:00 -2°C° 0 mm 2 mps 753 mmHg 63%
    13:00 -2°C° 0 mm 2 mps 753 mmHg 63%
    14:00 +1°C° 0 mm 1 mps 753 mmHg 63%
    15:00 0°C° 0 mm 1 mps 753 mmHg 67%
    16:00 -1°C° 0 mm 1 mps 754 mmHg 71%
    17:00 -2°C° 0 mm 1 mps 754 mmHg 75%
    18:00 -2°C° 0 mm 1 mps 754 mmHg 76%
    19:00 -2°C° 0 mm 1 mps 755 mmHg 78%
    20:00 -2°C° 0 mm 1 mps 755 mmHg 79%
    21:00 -2°C° 0 mm 1 mps 755 mmHg 80%
    22:00 -2°C° 0 mm 1 mps 755 mmHg 81%
    23:00 -5°C° 0 mm 2 mps 756 mmHg 82%

    25 November, Saturday

    Time Temperature Precipitation Wind Pressure Humidity
    00:00 -5°C° 0 mm 2 mps 756 mmHg 82%
    01:00 -5°C° 0 mm 2 mps 756 mmHg 82%
    02:00 -5°C° 0 mm 2 mps 756 mmHg 82%
    03:00 -5°C° 0 mm 2 mps 756 mmHg 82%
    04:00 -5°C° 0 mm 2 mps 756 mmHg 82%
    05:00 -5°C° 0 mm 2 mps 756 mmHg 82%
    06:00 -5°C° 0 mm 2 mps 756 mmHg 81%
    07:00 -5°C° 0 mm 2 mps 756 mmHg 80%
    08:00 -4°C° 0 mm 2 mps 756 mmHg 79%
    09:00 -3°C° 0 mm 2 mps 756 mmHg 74%
    10:00 -2°C° 0 mm 2 mps 756 mmHg 69%
    11:00 -1°C° 0 mm 3 mps 756 mmHg 63%
    12:00 -1°C° 0 mm 3 mps 756 mmHg 62%
    13:00 -1°C° 0 mm 3 mps 756 mmHg 62%
    14:00 -1°C° 0 mm 2 mps 756 mmHg 61%
    15:00 -1°C° 0 mm 2 mps 756 mmHg 65%
    16:00 -2°C° 0 mm 2 mps 756 mmHg 69%
    17:00 -3°C° 0 mm 2 mps 755 mmHg 73%
    18:00 -3°C° 0 mm 2 mps 755 mmHg 73%
    19:00 -3°C° 0 mm 2 mps 755 mmHg 73%
    20:00 -4°C° 0 mm 2 mps 755 mmHg 74%
    21:00 -4°C° 0 mm 2 mps 755 mmHg 74%
    22:00 -4°C° 0 mm 2 mps 755 mmHg 75%
    23:00 -4°C° 0 mm 2 mps 755 mmHg 76%

    26 November, Sunday

    Time Temperature Precipitation Wind Pressure Humidity
    00:00 -4°C° 0 mm 2 mps 755 mmHg 78%
    01:00 -4°C° 0 mm 2 mps 755 mmHg 80%
    02:00 -4°C° 0 mm 2 mps 755 mmHg 83%
    03:00 -4°C° 0 mm 2 mps 755 mmHg 84%
    04:00 -4°C° 0 mm 2 mps 754 mmHg 86%
    05:00 -4°C° 0 mm 2 mps 754 mmHg 88%
    06:00 -5°C° 0 mm 3 mps 754 mmHg 87%
    07:00 -5°C° 0 mm 3 mps 754 mmHg 86%
    08:00 -5°C° 0 mm 3 mps 754 mmHg 85%
    09:00 -2°C° 0 mm 3 mps 754 mmHg 80%
    10:00 -1°C° 0 mm 3 mps 754 mmHg 74%
    11:00 -1°C° 0 mm 4 mps 754 mmHg 68%
    12:00 0°C° 0 mm 3 mps 754 mmHg 68%
    13:00 0°C° 0 mm 3 mps 753 mmHg 68%
    14:00 +1°C° 0 mm 3 mps 753 mmHg 68%
    15:00 0°C° 0 mm 3 mps 753 mmHg 75%
    16:00 -1°C° 0 mm 3 mps 753 mmHg 81%
    17:00 -2°C° 0 mm 3 mps 753 mmHg 87%
    18:00 -4°C° 0 mm 3 mps 753 mmHg 87%
    19:00 -4°C° 0 mm 3 mps 753 mmHg 88%
    20:00 -4°C° 0 mm 3 mps 752 mmHg 88%
    21:00 -4°C° 0 mm 4 mps 752 mmHg 87%
    22:00 -3°C° 0 mm 4 mps 752 mmHg 85%
    23:00 -3°C° 0 mm 4 mps 752 mmHg 83%

    27 November, Monday

    Time Temperature Precipitation Wind Pressure Humidity
    00:00 -3°C° 0 mm 4 mps 752 mmHg 84%
    01:00 -3°C° 0 mm 4 mps 752 mmHg 84%
    02:00 -2°C° 0 mm 4 mps 752 mmHg 84%
    03:00 -2°C° 0 mm 4 mps 752 mmHg 85%
    04:00 -2°C° 0 mm 4 mps 751 mmHg 85%
    05:00 -2°C° 0 mm 4 mps 751 mmHg 85%
    06:00 -2°C° 0 mm 5 mps 751 mmHg 83%
    07:00 -2°C° 0 mm 5 mps 751 mmHg 82%
    08:00 -2°C° 0 mm 5 mps 751 mmHg 80%
    09:00 -2°C° 0 mm 5 mps 751 mmHg 75%
    10:00 -1°C° 0 mm 5 mps 751 mmHg 70%
    11:00 0°C° 0 mm 5 mps 751 mmHg 64%
    12:00 0°C° 0 mm 5 mps 750 mmHg 64%
    13:00 0°C° 0 mm 5 mps 750 mmHg 63%
    14:00 0°C° 0 mm 5 mps 750 mmHg 62%
    15:00 -1°C° 0 mm 5 mps 749 mmHg 67%
    16:00 -2°C° 0 mm 5 mps 749 mmHg 72%
    17:00 -4°C° 0 mm 5 mps 749 mmHg 77%
    18:00 -4°C° 0 mm 5 mps 749 mmHg 76%
    19:00 -4°C° 0 mm 5 mps 748 mmHg 75%
    20:00 -4°C° 0 mm 5 mps 748 mmHg 75%
    21:00 -2°C° 0 mm 5 mps 748 mmHg 75%
    22:00 -2°C° 0 mm 5 mps 747 mmHg 75%
    23:00 -2°C° 0 mm 5 mps 747 mmHg 75%
    Show more